Pagina principale
METAR-TAF:

METAR-TAF

Aeroporti :

Passo di Resia, Italia

latitudine: 46-50N, longitudine: 010-30E, altezza: 1800 m

Osservazione

Il bollettino è stato emesso 2 ore e 22 minuti fa, alle 11:55 UTC
Vento 5 kt da nord
Temperature 18°C
Umidità 49%
Pressione 1020 hPa
Visibilità 10 km o più
Poco nuvoloso ad un'altezza di 2500 ft
Nubi sparse ad un'altezza di 5000 ft

METAR: LIVE 271155Z 36005KT 9999 FEW025 SCT050 18/07 Q1020 RMK SCT VIS MIN 9999

Ora: 16:17 (14:17 UTC)


TAF: mancante

Osservazioni e previsioni meteorologiche di più di 4000 aeroporti (messaggi METAR e TAF).

Le stazioni disponibili sono rappresentate dai dischi gialli e rossi sulla carta.

Puntare il mouse per vedere il nome della stazione.

Clicca sopra per visualizzare le osservazioni e previsioni meteorologiche.

Per cambiare la mappa : fare clic sui pulsanti verdi con una croce nera per ingrandire, il pulsante verde con un trattino per diminuire, o sulla freccia verde per le mappe adiacenti.


METAR-TAF: